This is the latest recevied weather packets stored in our database for station/object WX9WTF. If no packets are shown the sender has not sent any weather packets the latest 1 day(s).
| Time | Temp. | Humidity | Pressure | Rain* | Wind** | Luminosity | Snow |
|---|---|---|---|---|---|---|---|
| 1778081015 | 12.78° C | 46% | 1019.3 hPa | 0 mm | - | 715 W/m² | - |
| 1778080410 | 12.78° C | 51% | 1019.4 hPa | 0 mm | - | 658 W/m² | - |
| 1778079804 | 12.22° C | 52% | 1019.5 hPa | 0 mm | - | 639 W/m² | - |
| 1778078591 | 12.78° C | 55% | 1019.5 hPa | 0 mm | - | 436 W/m² | - |
| 1778077986 | 12.22° C | 59% | 1019.5 hPa | 0 mm | - | 543 W/m² | - |
| 1778077382 | 12.22° C | 62% | 1019.4 hPa | 0 mm | - | 527 W/m² | - |
| 1778076778 | 11.67° C | 64% | 1019.2 hPa | 0 mm | - | 491 W/m² | - |
| 1778076475 | 11.11° C | 60% | 1019.3 hPa | 0 mm | - | 464 W/m² | - |
| 1778076172 | 11.67° C | 66% | 1018.8 hPa | 0 mm | - | 439 W/m² | - |
| 1778075869 | 11.11° C | 70% | 1019.1 hPa | 0 mm | - | 416 W/m² | - |
| 1778075565 | 10.56° C | 73% | 1019.2 hPa | 0 mm | - | 408 W/m² | - |
| 1778075262 | 10.56° C | 70% | 1019 hPa | 0 mm | - | 383 W/m² | - |
| 1778074656 | 10° C | 76% | 1018.8 hPa | 0 mm | - | 350 W/m² | - |
| 1778073140 | 8.89° C | 86% | 1018.4 hPa | 0 mm | - | 198 W/m² | - |
| 1778071326 | 7.78° C | 91% | 1018.2 hPa | 0 mm | - | 49 W/m² | - |
| 1778069207 | 7.22° C | 91% | 1017.2 hPa | 0 mm | - | 23 W/m² | - |
| 1778068904 | 7.22° C | 90% | 1017 hPa | 0 mm | - | 27 W/m² | - |
| 1778067997 | 7.22° C | 89% | 1017.2 hPa | 0 mm | - | 13 W/m² | - |
| 1778065879 | 7.22° C | 90% | 1017.1 hPa | 0 mm | - | 0 W/m² | - |
| 1778065576 | 7.22° C | 91% | 1017.6 hPa | 0 mm | - | 0 W/m² | - |
| 1778064970 | 7.22° C | 92% | 1017.5 hPa | 0 mm | - | 0 W/m² | - |
| 1778063456 | 6.67° C | 95% | 1017.6 hPa | 0 mm | - | 0 W/m² | - |
| 1778063155 | 6.67° C | 96% | 1017.8 hPa | 0 mm | - | 0 W/m² | - |
| 1778062852 | 6.67° C | 96% | 1017.5 hPa | 0 mm | - | 0 W/m² | - |
| 1778061340 | 6.67° C | 97% | 1016.2 hPa | 0 mm | - | 0 W/m² | - |
* Rain latest hour (hover to see other rain measurements)
** Current wind speed in m/s (hover to see current wind gust speed)